EHI
0 0 1 2 3 3 2 1 0 0 0 0 0 0 0 0 0 0 1 2 3 2 1 0 0 0 0 0 0 0 0 0 0 0 0 0 0 0 0 0 0 0 0
0 0 1 2 2 2 2 1 0 0 0 0 0 0 0 0 0 0 1 2 3 2 1 0 0 0 0 0 0 0 0 0 0 0 0 0 0 0 0 0 0 0 0
0 0 0 1 1 1 1 0 0 0 0 0 0 0 0 0 0 0 1 2 2 2 2 2 1 0 0 0 0 0 0 0 0 0 0 0 0 0 0 0 0 0 0
0 0 0 0 0 0 0 0 0 0 0 0 0 0 0 0 0 0 1 1 1 1 3 4 3 2 0 0 0 0 0 0 0 0 0 0 0 0 0 0 0 0 0
1 0 0 0 0 0 0 0 0 0 0 0 0 1 0 0 0 0 0 0 0 0 2 4 5 4 2 1 0 0 0 0 0 0 0 0 0 0 0 0 0 0 0
1 1 0 0 0 0 0 0 1 1 1 0 0 0 0 0 0 0 0 0 0 0 1 3 4 4 4 3 1 0 0 1 0 0 0 1 1 1 0 0 0 0 0
1 1 0 0 0 0 1 1 1 1 1 0 0 0 0 0 0 1 1 0 0 0 0 1 1 2 3 4 3 1 1 0 0 0 1 2 2 2 1 0 0 0 0
0 0 0 0 0 0 2 3 3 2 1 0 1 0 0 0 0 0 1 1 0 0 0 0 0 1 2 3 4 4 2 1 0 0 1 2 3 3 2 0 0 0 0
0 0 0 1 1 0 1 4 6 5 3 3 4 3 1 0 0 0 0 1 1 1 0 0 0 2 3 4 4 5 4 2 1 0 1 2 3 2 1 0 0 0 0
1 1 1 2 2 1 2 5 8 9 8 7 7 7 5 3 3 2 1 1 2 1 0 0 0 2 4 4 4 3 3 2 1 0 1 2 3 1 0 0 0 0 0
5 3 4 4 4 3 4 6 9 11 11 11 10 10 9 7 6 5 3 2 1 1 0 0 0 2 3 3 3 2 2 1 0 0 1 2 2 1 0 0 0 0 0
8 8 7 7 6 5 6 7 9 10 11 11 11 10 10 9 8 8 6 3 1 0 0 0 0 1 1 1 1 1 1 0 0 0 0 1 1 1 0 0 0 0 0
11 12 12 11 10 8 7 7 8 9 9 9 9 10 10 9 8 9 8 5 1 0 0 0 0 0 0 0 0 0 0 0 0 0 0 0 0 0 0 0 0 0 0
12 15 16 14 13 11 8 7 7 7 7 7 7 8 9 9 8 9 9 6 2 0 0 0 0 0 0 0 0 0 0 0 0 0 0 0 0 0 0 0 0 0 0
17 17 17 17 16 14 11 8 7 7 7 7 7 8 9 9 8 8 9 8 4 1 0 0 0 0 0 0 0 0 0 0 0 0 0 0 0 0 0 0 0 0 0
22 20 19 20 19 16 14 11 9 8 7 7 8 9 10 10 9 8 9 9 7 3 1 0 0 0 1 1 0 0 0 0 0 0 0 0 0 0 0 0 0 0 0
26 23 22 22 19 16 16 15 11 8 6 6 7 8 9 10 9 8 8 9 8 5 3 2 1 1 2 2 1 1 0 0 0 0 0 0 0 0 0 0 0 0 0
29 25 23 22 19 17 17 16 11 7 5 5 5 6 7 8 7 6 6 8 8 7 6 4 2 1 2 3 3 2 1 0 0 0 0 0 0 0 0 0 0 0 0
28 25 24 23 21 19 17 14 10 8 7 5 4 5 6 6 5 5 5 7 8 8 7 6 2 1 2 3 3 2 1 0 0 0 0 0 0 0 0 0 0 0 0
27 27 27 25 23 20 17 13 10 11 10 7 6 6 6 5 4 5 6 7 7 7 6 5 3 1 1 2 2 1 0 0 0 0 0 0 0 0 0 0 0 0 0
30 31 31 28 24 20 16 13 12 12 12 10 8 7 7 6 5 5 5 5 5 5 4 4 3 1 1 2 1 0 0 0 0 0 0 0 0 0 0 0 0 0 0
34 34 34 31 26 20 14 10 10 11 12 12 10 8 7 6 5 5 4 2 2 3 3 3 2 2 3 3 2 1 0 0 0 0 0 0 0 0 0 0 0 0 0
37 37 36 33 27 20 12 6 5 8 12 14 13 10 9 8 8 7 4 2 1 1 2 2 2 2 3 5 4 1 0 0 0 0 0 0 0 0 0 0 0 0 0
36 35 34 32 29 21 11 4 2 6 12 15 14 12 12 11 10 9 7 4 3 2 2 1 1 2 3 4 4 2 0 0 0 0 0 0 0 0 0 0 0 0 0
32 31 30 29 28 22 10 2 2 7 11 14 14 12 11 10 8 7 7 7 6 4 2 1 1 1 1 2 2 1 0 0 0 0 0 0 0 0 0 0 0 0 0
31 29 26 26 26 22 10 2 2 6 10 12 14 12 8 6 4 4 6 9 9 6 3 2 1 0 0 0 1 0 0 0 0 1 1 1 0 0 0 0 0 0 0
Wind_Speed
3 3 2 2 2 3 3 2 2 2 2 2 2 1 1 1 0 1 5 8 7 6 7 7 8 8 8 8 8 8 8 8 8 8 8 8 8 8 8 8 8 7 7
2 2 2 1 1 1 2 1 2 2 1 1 1 1 1 1 1 1 2 7 8 6 6 6 7 7 8 8 9 9 9 9 8 7 7 8 8 7 8 8 8 7 7
2 1 1 1 1 1 2 1 1 2 2 2 2 1 1 1 1 1 1 2 5 7 6 5 5 6 7 8 8 9 9 9 8 8 8 7 8 7 7 7 7 7 6
1 1 1 1 1 1 1 1 2 1 1 2 1 1 1 2 2 3 3 2 2 3 5 5 5 5 6 7 8 8 8 8 8 8 7 7 7 7 7 7 7 6 6
1 2 0 1 1 1 1 2 1 1 1 1 2 2 1 1 2 2 2 3 2 2 2 5 5 4 5 5 6 7 7 8 9 9 9 8 8 7 7 7 6 6 5
1 1 1 1 1 1 1 1 0 1 1 1 1 0 0 0 0 1 1 1 1 2 2 2 4 5 5 4 4 5 7 8 9 9 10 9 9 8 7 7 7 6 5
1 1 1 1 2 1 1 2 1 2 2 1 1 1 1 2 1 1 1 0 1 1 1 1 2 1 3 6 4 3 4 5 6 8 8 8 8 7 7 7 6 6 5
1 2 1 1 1 1 1 1 1 1 1 2 2 2 2 3 2 1 2 1 1 1 1 1 0 1 2 1 3 3 2 2 3 5 7 7 7 7 7 7 6 6 6
1 0 1 1 1 2 1 1 2 3 2 2 2 3 2 1 1 2 2 1 1 0 0 0 0 1 1 0 1 3 3 2 3 4 5 6 6 7 7 8 7 7 7
2 2 1 1 2 2 1 3 2 3 3 3 2 3 4 2 2 1 2 2 2 1 0 1 0 0 0 0 1 3 3 2 1 2 4 5 5 6 6 8 8 8 7
3 2 2 1 2 2 1 2 1 3 3 3 3 3 3 2 4 3 2 2 1 1 1 0 0 1 1 1 1 4 4 3 1 1 2 3 4 4 5 6 7 7 7
3 3 3 2 2 1 1 2 2 3 3 3 4 3 3 3 3 3 2 2 1 1 1 0 0 0 1 1 3 6 5 4 3 3 3 3 3 4 5 5 6 6 6
3 3 3 2 2 1 1 1 2 2 2 3 4 3 3 3 3 3 2 1 1 1 1 1 1 1 1 1 3 5 5 5 5 4 4 5 5 5 6 6 7 7 7
2 3 3 3 2 2 2 1 2 2 2 3 3 3 4 3 2 2 2 2 1 1 2 2 1 1 2 2 4 2 5 6 6 5 5 6 6 6 7 7 7 7 7
3 4 4 4 3 3 2 2 1 2 2 3 2 3 3 2 3 2 2 3 2 2 1 2 1 2 2 2 3 3 4 7 7 6 6 7 7 7 7 8 8 8 7
3 4 4 4 4 3 3 3 2 1 2 2 2 2 3 2 2 2 2 2 2 2 0 2 2 2 2 3 4 3 5 9 7 7 7 8 8 8 8 8 8 8 8
5 5 5 4 4 4 3 3 3 2 2 2 2 2 2 3 2 2 1 2 2 1 1 2 2 3 3 3 4 3 3 3 6 8 8 8 7 8 8 8 8 7 7
5 5 5 5 5 4 4 4 3 3 2 2 2 2 2 2 2 2 1 2 1 1 2 3 3 3 3 4 4 3 3 3 4 8 8 8 7 7 7 7 7 7 6
5 5 5 5 5 4 4 4 4 3 3 3 3 3 2 2 2 1 2 2 2 2 2 4 4 3 3 4 4 3 3 2 3 7 7 7 7 7 7 7 7 6 6
5 5 5 5 5 5 5 5 4 4 4 3 3 3 3 3 2 2 3 2 2 2 3 3 4 4 4 5 4 4 4 3 2 4 4 5 7 7 7 7 6 6 6
5 5 5 5 5 5 4 4 5 5 4 4 3 3 3 1 1 1 1 2 3 3 4 4 4 4 4 5 5 4 4 4 3 3 3 4 5 5 6 7 7 7 6
4 4 5 5 5 4 3 2 4 4 4 4 4 4 4 5 4 4 1 0 1 3 3 4 4 4 5 6 5 4 4 4 3 4 3 3 3 4 4 4 8 9 8
5 5 5 5 5 4 5 5 4 5 4 4 3 3 4 3 5 5 6 6 4 3 3 4 4 4 6 6 6 7 5 4 2 4 4 4 4 4 3 5 11 10 8
5 5 5 5 5 5 6 6 5 6 5 4 4 4 4 3 3 3 5 5 5 5 5 6 4 4 3 4 6 6 5 5 4 3 4 4 4 3 3 5 11 10 9
5 5 5 6 5 5 7 7 6 6 5 5 5 4 4 4 2 3 5 5 5 4 4 3 2 1 2 3 4 5 6 6 5 5 5 4 4 4 4 5 8 11 10
5 5 5 5 5 5 7 7 8 6 5 5 5 5 3 3 3 4 6 5 5 4 4 5 5 6 7 8 8 7 6 6 5 5 6 5 4 5 4 5 5 8 8
Wind_Direction
108 109 104 108 122 124 145 146 124 119 154 170 184 167 197 132 154 131 130 149 168 185 197 202 208 209 211 210 209 207 209 211 212 212 212 212 211 211 209 210 209 211 215
99 114 134 121 126 133 97 128 138 158 172 157 178 166 226 210 131 185 154 151 165 182 203 212 212 217 218 218 216 212 210 209 211 212 216 217 214 212 214 217 216 215 221
120 164 130 163 117 119 139 163 170 175 177 178 170 184 205 218 175 186 197 166 167 177 190 207 215 222 226 225 225 225 218 213 215 216 214 212 214 215 215 214 213 211 211
196 228 187 150 131 175 171 172 203 185 171 188 169 208 203 183 189 198 199 186 197 180 173 196 217 222 231 231 229 227 218 212 212 212 208 205 206 206 205 209 209 206 210
209 232 240 70 223 214 218 237 139 214 193 193 191 190 212 198 196 205 201 206 193 194 176 166 196 200 214 228 233 226 216 215 215 213 210 211 210 209 206 202 200 202 208
193 252 198 152 238 216 231 237 237 216 232 222 258 77 299 184 189 162 219 198 186 206 206 188 190 181 194 215 227 226 223 219 219 218 217 214 213 208 204 202 200 199 200
182 233 281 157 243 231 270 262 235 184 200 180 207 199 178 167 134 146 174 179 164 193 181 201 236 228 180 186 207 225 230 220 212 208 207 209 204 198 199 203 200 197 195
220 202 210 234 214 231 219 246 230 266 228 210 241 237 211 176 168 159 147 167 160 157 143 160 285 258 264 184 138 171 197 195 194 194 202 206 200 193 192 191 195 194 186
193 277 194 279 282 263 206 231 233 242 255 237 247 270 270 251 157 154 153 144 165 118 242 59 66 346 274 230 162 140 148 168 208 204 202 199 194 193 196 191 195 197 188
197 192 211 234 271 281 249 243 209 249 254 253 231 248 272 305 261 179 173 158 159 176 350 306 46 91 275 161 97 83 106 124 175 206 199 190 188 194 196 194 199 192 186
199 200 204 216 233 260 274 279 264 261 254 260 262 248 241 237 247 243 210 187 178 166 163 223 351 20 29 58 88 90 99 100 107 135 138 151 167 176 186 191 190 186 187
188 188 200 208 228 253 245 256 259 244 270 277 275 266 253 245 240 241 233 209 184 148 141 86 270 72 40 66 75 83 89 90 83 84 95 114 132 153 160 167 168 170 164
189 182 201 207 219 216 236 251 242 276 271 274 271 273 270 266 265 261 252 227 202 176 155 162 96 61 60 62 90 95 90 91 89 86 93 104 110 117 122 123 125 129 136
204 177 192 194 201 213 222 220 251 249 261 268 276 284 276 276 272 255 250 231 214 202 170 135 106 96 86 89 81 111 98 94 91 90 97 106 114 115 117 116 115 118 121
202 189 195 195 196 204 221 228 246 255 253 255 254 251 265 267 259 252 247 246 245 238 190 144 145 115 118 100 95 104 99 95 93 91 97 100 104 107 111 114 110 107 106
211 200 201 203 204 205 210 229 225 218 241 244 270 290 280 266 257 247 239 244 255 262 209 126 131 122 107 109 98 91 95 107 94 94 99 100 102 104 105 110 111 111 112
205 207 206 207 208 208 208 217 234 216 238 246 253 256 270 295 287 266 230 233 237 232 180 130 112 115 122 118 114 112 120 118 103 97 102 102 105 107 110 112 113 115 116
205 205 207 210 212 206 206 214 223 216 225 234 243 248 257 254 255 272 251 225 213 202 194 155 139 133 133 135 127 133 122 114 110 107 109 110 110 112 112 114 114 114 116
203 201 205 210 211 207 209 214 220 221 224 230 241 241 241 238 237 223 229 216 198 177 175 169 154 140 143 147 146 145 130 124 127 127 129 127 124 123 121 121 121 121 122
198 198 204 211 211 210 213 215 216 217 218 220 226 235 241 235 227 215 201 194 182 166 163 175 154 158 155 157 173 166 160 160 160 147 132 136 138 146 144 140 139 138 135
196 198 204 207 208 209 213 217 220 210 214 219 217 217 213 205 353 270 254 186 179 182 176 177 174 175 170 171 187 187 175 164 163 177 168 168 165 170 167 167 166 161 154
200 197 205 208 210 211 142 194 251 225 221 224 221 216 199 187 184 194 221 238 243 204 196 197 197 192 188 188 187 192 184 184 182 177 202 192 189 188 183 173 151 160 167
197 201 209 210 209 188 156 181 231 242 230 229 228 229 233 185 195 198 184 190 201 218 234 243 224 211 198 191 191 196 200 206 205 161 196 200 195 200 191 139 145 163 174
198 202 209 211 210 186 168 186 210 227 227 226 229 229 229 213 210 224 206 198 202 199 214 227 235 230 215 189 196 205 192 189 194 189 198 217 193 200 191 158 154 171 180
205 210 209 210 212 190 172 185 211 223 219 221 224 226 229 222 181 230 222 211 207 200 191 196 204 172 118 162 189 196 192 198 195 186 195 224 197 197 200 186 164 176 187
207 217 207 211 210 198 171 186 213 230 220 221 215 211 199 228 179 204 224 218 214 214 200 174 175 184 191 187 195 211 206 211 206 196 182 210 204 201 205 194 183 178 189